Volver al catálogo

STARLINK-36298

ActivoComunicacionesVLEO
NORAD 68517·PAYLOAD·🇺🇸 United States

Lanzado Mar 30, 2026 desde Cape Canaveral Space Force Station

Loading…

Próximos Pases (próximas 24 horas)

TLE

ActualizadoSource: CelesTrak SupGP

Época: Sep 15, 2026, 03:09 UTC

1 68517C 26068K   26258.13173611  .00057704  00000+0  17042-2 0  2581
2 68517  53.1580 324.9202 0001156  90.5724 201.2768 15.34373720    15

Sigue STARLINK-36298 en tiempo real con AllMySat

Download on the App Store